This is the latest recevied weather packets stored in our database for station/object K3PPP. If no packets are shown the sender has not sent any weather packets the latest 10 day(s).
| Time | Temp. | Humidity | Pressure | Rain* | Wind** | Luminosity | Snow |
|---|---|---|---|---|---|---|---|
| 1777834065 | 10° C | 43% | 1016 hPa | 0 mm | - | 792 W/m² | - |
| 1777833761 | 10° C | 44% | 1015.9 hPa | 0 mm | - | 350 W/m² | - |
| 1777833457 | 10° C | 43% | 1015.9 hPa | 0 mm | - | 157 W/m² | - |
| 1777833155 | 10.56° C | 43% | 1016 hPa | 0 mm | - | 792 W/m² | - |
| 1777832853 | 11.11° C | 43% | 1016 hPa | 0 mm | - | 226 W/m² | - |
| 1777832551 | 10.56° C | 41% | 1016 hPa | 0 mm | - | 841 W/m² | - |
| 1777832248 | 11.11° C | 40% | 1015.9 hPa | 0 mm | - | 817 W/m² | - |
| 1777831945 | 10.56° C | 42% | 1016.1 hPa | 0 mm | - | 912 W/m² | - |
| 1777831641 | 10.56° C | 42% | 1016.1 hPa | 0 mm | - | 523 W/m² | - |
| 1777831339 | 11.11° C | 44% | 1016.1 hPa | 0 mm | - | 817 W/m² | - |
| 1777831036 | 10.56° C | 43% | 1016.2 hPa | 0 mm | - | 831 W/m² | - |
| 1777830734 | 10.56° C | 45% | 1016.6 hPa | 0 mm | - | 788 W/m² | - |
| 1777830429 | 10° C | 46% | 1016.2 hPa | 0 mm | - | 802 W/m² | - |
| 1777830127 | 10.56° C | 42% | 1016.2 hPa | 0 mm | - | 805 W/m² | - |
| 1777829822 | 10° C | 47% | 1016.4 hPa | 0 mm | - | 833 W/m² | - |
| 1777829519 | 10° C | 45% | 1016.2 hPa | 0 mm | - | 804 W/m² | - |
| 1777829216 | 10° C | 47% | 1016.4 hPa | 0 mm | - | 788 W/m² | - |
| 1777828913 | 9.44° C | 47% | 1016.6 hPa | 0 mm | - | 798 W/m² | - |
| 1777828609 | 8.89° C | 46% | 1016.5 hPa | 0 mm | - | 346 W/m² | - |
| 1777828307 | 9.44° C | 45% | 1016.4 hPa | 0 mm | - | 470 W/m² | - |
| 1777828003 | 9.44° C | 43% | 1016.5 hPa | 0 mm | - | 819 W/m² | - |
| 1777827700 | 9.44° C | 44% | 1017 hPa | 0 mm | - | 804 W/m² | - |
| 1777827397 | 10° C | 46% | 1016.7 hPa | 0 mm | - | 917 W/m² | - |
| 1777827093 | 9.44° C | 49% | 1016.7 hPa | 0 mm | - | 533 W/m² | - |
| 1777826790 | 8.89° C | 46% | 1016.7 hPa | 0 mm | - | 800 W/m² | - |
* Rain latest hour (hover to see other rain measurements)
** Current wind speed in m/s (hover to see current wind gust speed)